Orbital Elements at Epoch 2459000.5 (2020-May-31.0) TDB
Reference: JPL 33 (heliocentric ecliptic J2000)
Element | Value | Uncertainty (1-sigma) | Units |
e | .2720904288282147 | 6.8685e-08 | |
a | 1.32282530942543 | 1.2241e-08 | au |
q | .9628972037190493 | 8.3907e-08 | au |
i | 11.55149634607264 | 1.0745e-05 | deg |
node | 132.8480805298065 | 8.4771e-06 | deg |
peri | 50.22738488249811 | 3.7714e-05 | deg |
M | 102.3588613788099 | 8.0816e-05 | deg |
tp | 2458842.493440834117 (2019-Dec-24.99344083) | 0.00012257 | TDB |
period | 555.7150649537564 1.52 | 7.7135e-06 2.112e-08 | d yr |
n | .6478140016412138 | 8.9919e-09 | deg/d |
Q | 1.682753415131811 | 1.5571e-08 | au |
|
| | Orbit Determination Parameters
Additional Information
|